User: anonymous   Login
Location: Unspecified
(0.0000°N, 0.0000°E)
Time: 11:02:46
(UTC+00:00)
Language:

GOES 4 - Orbit

View from above orbital plane
View from above orbital plane
View from above satellite
View from above satellite

Ground track
Ground track

The orbit data is extracted from the following two-line orbital elements,

1 11964U 80074A   17351.06736691  .00000035  00000-0  00000+0 0  9992
2 11964  13.9761 332.8648 0033461  12.8169 161.8135  0.99229330 96825
Epoch (UTC): 17 December 2017 01:37:00
Eccentricity: 0.0033461
inclination: 13.9761°
perigee height: 35939 km
apogee height: 36223 km
right ascension of ascending node: 332.8648°
argument of perigee: 12.8169°
revolutions per day: 0.99229330
mean anomaly at epoch: 161.8135°
orbit number at epoch: 9682

The dashed part of the orbit path shows where the satellite is in the earth's shadow,  

DLR